RH
52 54 57 58 59 59 59 59 59 59 60 61 63 64 66 67 68 69 70 71 73 74 76 77 79 80 82 83 84 87 88 88 90 90 90 91 89 88 86 84 82 80 78 76 75 74 72 71 72 71 71 70 71 70 70 69 68 67 65 63 62 61 61 62 61 59 56 54 52 50 48 46 44 41 37 34 32 30 29 28 26 24 22 20 18
53 56 58 61 62 63 63 63 63 63 64 64 66 67 69 70 71 73 74 76 77 78 80 81 83 84 85 87 87 89 91 90 91 91 91 91 90 89 89 88 86 85 83 82 80 78 77 77 77 75 75 74 73 73 72 71 70 69 66 65 65 65 65 64 62 58 55 53 51 48 46 44 43 39 36 32 30 29 27 25 24 22 20 17 15
55 58 60 62 64 65 66 66 65 66 66 67 68 69 71 72 73 75 76 79 81 82 84 84 86 86 87 89 89 91 93 92 92 92 91 90 90 89 88 87 87 86 85 83 82 81 80 80 79 78 78 77 76 76 75 74 73 72 70 68 68 67 65 62 60 57 54 52 49 46 43 41 39 36 34 31 28 27 25 23 22 20 18 16 13
59 60 62 63 66 67 68 69 68 69 69 68 70 70 72 75 76 79 80 82 84 85 87 88 89 90 92 94 94 95 95 93 90 89 87 85 84 82 80 79 78 77 76 74 74 73 73 73 73 73 72 72 71 71 70 69 68 67 65 64 62 60 58 56 54 51 49 47 45 42 40 37 35 33 31 29 26 24 23 21 20 18 17 15 12
56 59 62 63 66 68 70 71 71 72 73 72 74 75 76 78 80 83 85 87 89 91 93 94 94 95 94 93 92 90 88 85 81 79 76 73 71 69 67 66 65 64 63 62 61 61 60 60 60 60 60 59 58 58 57 56 56 55 54 53 52 51 49 48 45 42 40 38 37 36 35 33 31 30 28 26 24 22 20 19 18 17 15 14 12
48 53 59 63 65 68 70 73 75 76 77 78 79 81 82 84 86 88 91 92 93 94 94 91 89 88 85 80 78 76 73 70 68 66 64 62 60 59 57 56 55 55 54 54 53 53 52 52 52 51 51 51 50 49 49 48 48 47 47 46 46 45 43 43 40 37 34 32 30 29 29 29 28 26 25 24 23 21 18 17 15 14 13 12 11
41 47 58 65 67 71 73 75 78 78 80 82 84 87 90 91 92 92 91 89 87 85 83 78 74 73 70 66 64 62 60 59 58 57 55 54 52 51 50 49 48 48 49 48 48 48 48 47 47 47 47 47 46 46 46 46 45 44 44 43 42 42 40 39 38 35 33 29 26 25 24 23 23 22 22 21 22 21 19 16 14 11 10 10 9
38 44 54 65 70 74 77 78 79 81 83 85 87 90 92 92 89 84 80 77 73 70 67 62 59 59 57 55 53 51 51 50 49 48 48 47 46 45 44 44 44 44 44 44 44 44 44 45 45 45 45 45 45 45 45 44 44 43 42 41 39 39 37 36 35 33 31 28 25 23 21 19 18 17 16 16 17 20 20 17 14 12 9 8 7
38 42 49 61 70 74 78 79 80 82 84 86 88 88 87 83 77 71 69 66 62 59 57 53 51 50 48 46 43 40 40 38 37 37 37 36 35 36 37 38 39 41 41 42 42 42 42 43 45 44 45 45 44 44 44 43 42 41 39 38 36 35 33 32 31 30 28 27 24 22 20 18 16 14 13 13 13 14 17 17 15 13 11 9 7
40 40 44 54 63 69 77 81 82 83 84 84 82 79 77 73 69 65 63 59 54 51 47 42 39 37 35 33 32 31 31 30 30 31 31 30 30 30 31 32 34 37 38 40 41 42 42 43 43 43 43 43 42 41 40 39 37 36 34 33 31 29 27 25 25 24 23 22 21 19 18 16 15 14 12 11 11 11 12 14 13 12 12 10 8
38 38 39 45 51 60 71 77 80 80 79 77 76 73 71 66 60 54 48 43 37 34 30 28 27 26 26 26 27 28 29 29 30 30 31 31 30 31 31 31 32 34 35 36 38 38 39 40 39 39 39 37 36 35 34 33 31 29 28 26 25 23 21 19 18 18 17 17 16 15 15 14 13 12 12 11 10 10 10 10 10 9 10 10 9
29 32 35 38 45 56 65 70 73 74 73 72 69 64 55 46 38 32 28 25 23 23 23 23 24 25 26 27 27 29 30 31 32 32 33 33 32 33 34 33 33 33 32 32 31 31 31 31 30 29 28 27 26 26 25 24 23 22 21 20 19 18 16 16 15 14 14 14 14 13 12 12 12 11 11 10 10 10 10 9 9 8 8 8 8
21 25 28 34 41 52 59 62 65 67 68 65 55 43 33 28 25 24 23 23 23 23 23 24 25 26 27 28 28 30 32 34 35 35 35 35 35 36 35 35 34 32 31 29 27 25 24 23 22 20 19 18 17 17 17 16 16 16 16 16 15 15 15 15 14 14 14 13 13 13 12 12 12 12 11 11 11 10 10 9 9 9 8 8 7
15 17 20 26 34 44 49 51 53 55 56 52 42 32 28 27 27 26 26 26 25 25 24 25 26 27 28 29 30 31 33 36 38 39 39 38 38 38 37 35 34 31 29 26 24 22 20 19 18 17 16 15 15 15 15 15 15 16 16 16 16 16 16 15 15 15 14 14 14 13 13 13 12 12 12 11 11 11 11 10 10 9 9 8 7
12 13 15 18 26 36 40 41 42 44 45 41 33 28 28 27 27 27 26 26 26 26 26 26 27 28 30 32 33 34 36 39 42 43 43 43 42 40 37 34 32 29 25 23 20 18 17 16 16 16 16 16 16 17 17 17 18 18 18 17 17 17 17 16 16 15 15 14 14 13 13 13 13 12 12 11 11 11 10 10 10 10 10 9 8
12 13 14 16 22 29 33 35 35 35 38 36 29 27 28 29 28 27 26 26 26 27 27 27 27 29 31 33 37 40 41 44 46 47 47 46 44 41 37 33 29 26 22 19 17 16 17 17 18 19 19 20 20 20 20 20 20 19 19 18 18 17 17 16 15 15 15 14 14 13 13 13 13 12 12 11 11 10 10 10 10 9 10 9 9
14 14 15 17 19 24 28 32 31 29 33 34 30 29 30 30 29 27 26 26 27 27 27 27 26 27 30 34 40 44 47 48 50 51 49 46 44 40 34 29 25 22 21 20 20 21 22 23 24 24 24 23 23 22 21 21 20 19 19 18 17 17 16 16 15 15 14 14 13 13 13 13 12 12 11 11 10 10 10 10 9 9 9 9 10
15 15 16 16 17 20 22 26 28 26 28 30 30 29 29 30 29 28 28 27 27 28 28 28 28 28 31 36 42 46 49 51 52 53 49 43 38 32 27 24 23 23 24 24 26 26 26 26 25 24 23 22 21 20 19 19 18 18 17 17 16 16 16 15 15 15 14 14 13 13 13 12 12 12 11 11 10 10 9 9 9 9 8 9 9
17 17 18 19 19 20 20 22 23 22 22 24 25 26 28 30 30 30 30 30 30 30 29 29 30 32 35 40 44 48 50 51 50 47 40 32 27 23 22 23 24 25 26 26 25 24 23 22 21 21 20 20 19 19 19 18 18 18 17 17 16 16 16 16 15 15 14 14 13 13 12 12 12 11 11 10 10 9 9 9 9 8 8 8 8
19 18 19 20 21 23 23 24 23 21 22 23 24 26 28 31 33 33 33 33 32 31 30 31 32 35 39 42 46 48 48 45 39 31 25 21 20 21 23 24 25 26 25 24 23 22 21 21 21 21 21 20 20 20 20 20 19 19 18 17 17 16 16 16 15 14 14 13 13 13 12 11 11 11 10 10 9 9 9 8 8 8 8 7 7
19 20 22 22 23 25 24 23 22 21 22 24 25 28 30 32 35 36 36 36 35 35 33 33 34 36 39 44 47 45 40 32 24 20 19 20 22 24 25 25 25 24 23 23 23 22 22 22 22 22 22 22 22 21 21 20 20 19 18 18 17 17 16 16 15 14 14 13 12 12 12 11 11 10 10 10 9 9 9 8 8 8 8 8 7
21 22 23 23 25 29 34 37 35 32 31 29 30 31 32 34 38 39 39 38 37 36 35 33 34 36 39 43 44 36 27 21 18 19 21 23 25 25 25 25 24 24 23 23 23 23 24 24 24 24 23 23 23 22 22 21 20 19 18 18 17 16 16 15 15 14 13 13 12 12 12 11 11 10 10 10 9 9 9 9 8 8 8 8 8
23 25 29 34 38 44 55 60 53 46 40 35 33 34 34 35 39 42 41 39 39 37 35 33 33 34 37 40 35 26 19 17 19 22 23 25 25 25 25 25 24 24 24 24 25 25 25 25 25 25 24 24 23 23 22 21 20 19 18 18 17 16 16 15 15 15 14 13 13 12 12 12 11 11 11 10 10 10 10 9 9 9 9 8 8
36 39 44 51 55 60 70 76 71 62 53 46 41 37 36 37 40 45 44 42 42 41 37 35 34 34 35 34 27 20 18 19 21 24 25 25 25 25 25 25 25 26 26 26 26 26 26 26 26 25 25 24 23 23 22 21 20 19 19 18 18 17 16 15 15 15 14 13 13 13 13 12 12 12 11 11 11 10 10 10 10 10 10 10 9
53 55 57 62 67 75 85 91 91 87 78 70 61 51 44 42 44 49 49 46 47 45 42 39 37 35 32 27 21 18 19 22 23 24 25 25 25 25 26 26 27 27 27 27 28 27 27 27 26 26 25 25 24 23 22 21 20 20 19 18 18 17 16 16 15 15 14 14 13 13 13 12 12 12 11 11 11 12 12 12 11 12 12 11 11
57 62 68 74 80 89 98 99 100 100 95 89 81 69 57 50 52 57 56 53 52 50 47 45 41 35 28 21 19 19 21 23 24 24 24 25 25 26 26 27 27 28 28 28 28 28 28 27 27 27 26 25 24 24 23 22 21 21 20 19 19 18 17 17 16 16 15 15 14 14 13 13 13 13 12 13 13 13 14 13 13 14 14 15 14
57 64 69 76 82 88 95 98 99 101 99 96 92 85 75 64 62 68 68 61 56 54 54 52 43 32 23 18 18 20 22 23 23 23 24 25 26 26 26 26 27 27 28 28 28 29 28 28 28 27 27 26 25 25 24 23 23 22 21 21 20 19 19 18 17 17 16 16 16 15 15 15 14 14 14 14 14 15 15 16 17 17 19 21 20
62 64 66 74 79 84 92 98 100 100 99 99 98 97 93 80 74 81 80 70 62 61 60 56 42 28 19 17 19 21 23 24 23 24 25 26 27 26 26 26 27 27 28 28 29 29 29 29 28 28 28 27 26 26 25 25 24 24 23 23 22 21 20 19 18 18 17 17 17 16 16 16 16 16 16 16 17 18 19 19 19 23 28 30 29
59 62 66 71 76 83 91 97 100 101 101 102 101 102 101 92 87 91 88 79 74 70 64 55 38 23 18 18 20 22 23 24 24 25 26 27 27 26 26 26 26 27 28 29 29 30 29 29 29 29 29 28 28 28 28 27 27 26 27 26 25 25 23 21 21 20 20 20 19 19 18 18 18 19 19 21 22 24 28 28 28 34 39 39 40
55 62 66 69 74 81 89 94 98 99 101 102 102 103 103 99 98 99 95 91 89 81 70 53 33 21 20 21 23 24 25 26 26 26 27 28 27 27 26 26 26 27 28 29 30 30 30 30 30 30 30 30 30 30 30 31 30 31 31 29 27 25 24 23 22 21 21 21 21 21 21 21 23 24 25 28 30 35 42 45 45 48 50 50 51
56 62 65 70 77 82 86 94 98 99 100 102 101 101 103 102 101 101 100 99 96 90 76 50 28 22 23 24 26 28 28 29 29 28 29 29 28 28 27 26 27 27 28 30 30 30 30 31 31 31 31 32 32 33 33 34 35 39 39 36 32 29 27 25 23 22 22 22 22 21 22 22 24 27 30 33 37 44 53 60 63 62 63 64 65
61 69 74 80 86 90 93 97 100 100 101 101 99 99 101 102 101 101 102 101 99 94 75 44 25 24 26 28 31 32 32 32 32 31 31 31 30 29 28 28 28 28 29 30 30 31 32 32 33 33 34 34 35 36 37 38 40 45 46 43 38 34 32 29 27 26 25 24 24 23 23 24 25 28 32 34 37 42 50 61 66 67 70 78 87
71 78 84 89 94 98 101 100 100 101 102 101 99 99 100 102 100 101 102 101 101 95 69 36 25 28 30 32 35 36 36 36 35 35 34 33 33 31 30 30 30 30 30 30 31 32 33 34 35 35 36 37 38 40 41 42 45 50 52 49 44 39 36 33 31 30 28 27 27 27 27 28 30 34 37 40 45 51 58 69 75 76 80 87 94
78 82 88 95 99 102 102 101 102 102 101 102 100 99 101 101 99 101 101 100 103 93 59 31 29 33 35 37 39 40 41 40 39 38 37 36 35 34 33 32 32 33 32 31 32 33 34 36 37 37 38 39 41 43 43 44 49 54 56 54 49 44 40 37 34 32 30 29 30 32 34 35 37 42 44 48 58 70 81 89 91 94 98 97 92
88 90 95 97 96 95 95 98 102 101 101 102 100 100 102 100 99 102 99 100 105 87 49 30 35 38 39 42 43 44 45 45 43 42 40 39 38 37 36 35 35 35 34 34 34 34 35 37 37 39 39 40 43 46 45 46 52 58 59 56 52 47 43 40 37 34 32 32 34 39 43 44 45 47 49 56 71 85 95 99 99 101 104 101 93
99 100 99 95 92 92 94 98 101 101 102 101 100 101 101 100 101 101 98 103 102 72 39 34 41 41 44 47 48 50 50 48 47 45 43 42 41 40 40 39 39 39 37 36 36 35 36 37 38 40 40 40 43 47 47 48 55 62 62 58 54 50 46 42 39 36 35 36 40 47 51 53 53 52 52 63 80 95 101 102 103 104 103 100 93
100 98 95 95 97 98 100 101 100 101 102 100 100 101 100 100 102 99 99 105 91 55 37 42 46 46 50 53 53 55 55 52 51 48 46 45 44 44 43 43 43 43 40 39 37 37 38 38 39 41 41 41 43 47 49 50 57 66 67 61 56 52 49 45 41 38 37 39 45 53 57 58 59 56 55 62 80 97 103 103 104 104 102 101 94
96 96 97 100 101 101 102 101 100 101 100 99 101 101 100 101 101 98 102 101 75 46 42 50 50 52 57 57 58 60 58 56 54 51 50 50 48 47 47 47 47 46 43 41 39 39 39 40 40 41 42 42 43 46 49 51 59 69 70 64 59 55 51 48 43 40 39 41 47 54 59 61 59 56 59 68 81 96 103 103 104 104 104 103 91
93 98 102 102 101 101 101 101 101 100 99 100 101 100 100 101 99 100 104 90 61 46 52 56 56 60 63 62 63 63 60 59 57 55 55 54 52 52 52 51 50 49 46 44 41 41 40 40 41 42 43 44 44 46 48 53 62 71 71 68 65 59 55 51 46 43 42 43 47 52 58 61 59 59 69 79 87 95 102 104 104 104 105 100 87
98 101 102 101 101 102 100 100 101 100 100 101 100 100 101 100 99 103 98 75 54 53 60 61 63 68 68 67 67 65 64 63 60 59 58 56 56 56 55 55 54 51 49 46 43 42 42 41 42 43 44 46 46 46 49 56 66 73 74 73 70 65 60 54 49 49 47 44 46 52 57 60 60 62 71 82 88 94 102 103 102 104 105 96 88
102 101 101 101 102 101 100 100 100 100 101 100 99 100 101 99 101 102 85 63 56 62 65 67 71 73 71 71 70 69 68 67 65 63 62 60 60 60 59 58 56 53 51 48 45 44 43 42 44 45 45 47 49 48 51 60 71 76 76 76 75 70 64 60 57 54 48 45 50 59 64 65 65 65 71 79 86 92 100 103 102 103 103 99 98
101 101 101 101 100 100 101 101 100 100 101 100 100 100 99 100 103 94 72 60 63 67 69 73 76 76 75 75 75 74 73 71 68 67 66 66 65 64 62 61 57 54 52 49 46 46 45 44 46 47 47 49 50 51 55 66 75 77 76 78 79 75 70 69 65 56 49 52 62 70 74 73 72 73 77 83 86 90 96 100 99 99 100 100 101
101 100 100 100 101 101 101 100 100 101 100 100 101 99 99 102 98 80 66 65 69 71 75 79 80 80 81 82 81 80 78 74 72 71 71 70 69 67 65 62 58 55 53 50 48 48 47 48 48 49 50 52 52 54 61 72 79 77 76 79 82 79 75 72 66 57 54 60 69 77 83 83 83 86 90 90 88 84 82 80 82 88 89 86 85
101 101 100 100 100 100 100 100 101 100 100 101 100 99 101 100 87 72 68 71 73 76 81 83 84 86 87 87 86 85 82 79 78 76 75 73 72 69 67 62 58 56 54 52 51 51 51 52 52 53 54 54 54 57 66 78 83 80 77 79 81 81 78 73 67 61 59 63 71 81 88 90 91 94 93 88 80 75 72 70 72 77 76 71 72
101 101 100 100 100 100 100 100 100 100 101 100 99 101 102 93 79 72 73 76 79 83 86 88 90 92 92 90 88 87 85 84 82 80 78 76 73 70 66 62 60 58 57 56 55 55 56 57 57 58 58 58 59 62 69 80 86 84 81 81 81 82 82 79 74 66 60 63 73 82 88 92 94 96 94 89 84 80 78 77 75 74 72 68 69
100 100 100 100 100 100 100 100 100 101 101 99 101 103 98 85 76 76 78 81 86 89 91 94 96 95 95 93 90 88 87 86 84 83 81 79 75 70 67 64 62 62 61 60 61 62 63 64 64 64 63 62 63 66 70 78 84 85 82 82 81 79 80 82 79 70 61 61 67 75 83 88 90 91 92 93 92 90 88 85 81 78 73 69 70
100 100 100 99 99 100 101 100 100 101 100 100 103 101 92 82 78 80 83 86 91 94 95 98 98 97 96 95 92 90 88 86 86 85 83 79 75 71 68 67 66 66 66 67 68 69 70 71 70 69 68 66 66 68 72 77 81 82 81 80 78 77 77 79 80 74 64 56 56 64 76 82 81 81 85 90 93 95 94 90 87 82 76 72 75
100 99 100 100 100 100 100 100 100 100 100 102 101 96 88 83 82 85 88 92 96 98 98 99 99 97 96 95 93 91 89 88 87 86 83 80 76 73 72 72 71 72 73 75 76 77 78 79 78 75 74 71 68 70 74 75 76 78 78 76 75 74 74 76 79 79 70 57 51 58 71 77 79 80 83 87 93 98 99 96 90 84 78 75 79
100 99 100 101 100 100 100 100 100 100 101 101 97 91 88 87 88 91 94 97 99 99 99 100 99 97 95 95 94 93 92 90 89 87 84 81 78 77 78 78 80 82 83 85 86 87 88 89 87 84 80 75 69 68 72 74 75 79 82 82 82 82 81 83 86 86 79 66 56 58 67 75 80 81 82 85 91 97 102 102 96 89 80 77 82
98 95 96 99 101 100 100 100 100 100 101 98 93 89 90 92 94 97 99 101 101 100 99 99 98 98 97 97 96 94 93 91 89 87 85 83 82 84 85 87 88 90 92 94 95 94 93 92 87 81 77 74 69 67 70 74 79 86 93 95 94 92 91 94 95 91 84 74 64 59 65 75 82 82 83 87 91 95 101 104 102 97 88 82 86
96 94 95 99 100 99 99 100 101 100 97 93 91 92 94 96 99 102 102 102 101 100 100 100 99 100 100 98 96 95 93 91 90 89 88 87 87 90 93 96 98 98 98 101 102 101 100 98 92 86 82 79 77 76 76 78 83 92 99 100 95 92 95 101 100 93 87 81 71 62 64 75 82 84 88 93 95 96 100 103 104 102 97 90 90
Wind_Speed
25 25 24 25 26 28 30 31 32 33 33 33 33 32 32 32 32 33 33 33 33 34 34 35 35 35 36 36 37 37 38 39 39 39 39 39 40 40 41 42 42 42 43 43 43 43 43 44 44 45 46 46 47 47 48 48 49 50 50 51 51 52 52 52 53 53 52 52 50 48 47 46 46 46 46 46 46 46 45 45 45 45 44 44 45
28 26 24 24 24 25 27 29 30 31 32 32 32 32 32 32 33 33 33 33 33 34 35 35 36 36 37 37 38 39 40 41 42 42 43 43 43 44 44 45 45 46 46 47 47 47 48 48 49 49 50 51 51 52 52 53 54 54 55 55 54 54 54 53 52 52 52 51 50 49 48 47 46 47 47 47 48 47 46 46 45 45 45 44 45
31 28 26 25 24 24 25 27 28 30 31 32 32 32 32 33 33 33 34 34 34 35 36 36 37 38 39 39 40 41 41 42 43 43 44 44 44 44 45 45 46 46 47 47 48 48 49 50 51 51 52 53 54 54 54 55 55 56 56 55 54 53 52 51 51 51 51 51 51 51 50 49 48 48 48 48 49 48 48 48 47 46 46 46 46
31 30 29 27 26 26 26 26 28 29 30 31 32 33 33 33 34 34 35 35 35 36 37 38 39 39 40 40 41 41 42 42 43 44 44 45 45 45 45 46 45 46 46 46 46 46 46 47 48 48 49 50 51 51 51 51 51 52 52 51 51 50 50 50 50 50 51 51 52 52 52 52 51 50 50 49 49 50 49 49 49 48 48 47 47
30 30 30 29 28 28 28 27 28 29 30 31 32 33 34 34 34 35 35 36 36 36 37 37 38 39 39 40 41 42 43 44 45 46 47 48 48 48 49 49 49 48 48 48 48 47 46 46 46 46 46 47 47 48 48 48 48 48 49 49 49 50 50 50 50 50 50 51 52 53 53 54 53 53 52 51 49 50 50 50 50 50 49 49 49
30 29 29 29 29 29 29 29 29 29 30 30 31 32 33 34 35 35 35 35 36 36 37 37 39 40 41 43 44 45 47 48 49 50 51 51 52 52 52 53 52 52 51 51 50 50 49 48 47 48 47 47 47 48 48 48 48 48 49 49 50 50 51 51 51 50 50 51 52 53 54 55 55 55 55 54 52 50 50 51 51 51 51 51 51
30 29 29 29 30 30 30 31 31 31 31 32 32 33 33 34 34 34 35 36 37 38 39 42 44 45 46 48 49 51 52 53 54 55 56 56 56 56 56 56 55 55 54 54 53 52 52 50 49 49 49 49 49 49 49 49 50 50 50 50 50 51 51 51 52 52 51 51 52 53 53 54 56 56 57 57 56 53 51 51 51 51 51 52 52
29 29 29 29 30 30 31 32 33 33 34 34 34 34 34 34 35 37 38 39 41 43 44 47 49 50 52 53 55 56 57 58 59 60 60 60 60 60 59 58 57 56 56 55 54 53 52 51 50 50 50 50 50 50 50 50 50 50 50 50 51 51 52 52 52 53 53 52 52 52 53 53 54 55 56 57 59 58 55 53 53 53 52 52 53
29 28 27 28 28 30 31 32 33 34 35 35 35 35 36 37 39 41 42 43 46 48 50 53 54 56 57 58 59 60 60 60 61 61 60 61 60 59 58 57 55 54 54 54 53 52 51 50 50 49 49 49 49 50 50 50 50 50 50 50 50 50 51 51 52 52 53 53 53 53 53 53 53 54 55 56 58 60 59 57 55 55 55 54 53
29 28 27 27 28 29 31 32 33 34 35 36 36 37 38 40 43 45 46 49 51 52 54 56 57 58 59 59 59 59 59 58 58 57 57 56 56 54 53 52 51 50 50 50 50 50 49 48 48 48 48 48 48 48 48 48 49 49 49 49 49 49 49 50 51 52 52 53 53 54 53 53 54 54 54 55 56 58 60 60 58 57 58 57 56
30 30 28 28 29 29 31 33 34 35 37 38 39 41 43 45 48 49 51 53 53 54 54 55 55 55 55 56 55 55 55 54 54 53 52 52 51 50 49 48 47 46 46 46 46 46 46 45 45 45 45 45 46 46 46 46 47 47 48 48 48 48 48 49 49 50 51 52 52 53 53 53 54 54 55 55 56 58 59 61 60 59 59 59 58
32 32 31 30 30 30 32 34 35 37 39 41 42 45 47 49 50 50 51 51 51 52 52 52 52 53 53 53 53 53 53 52 52 51 49 48 47 46 45 45 44 43 43 43 42 42 43 42 42 42 42 43 43 44 44 45 45 46 46 47 47 47 48 48 49 49 50 51 51 52 53 53 53 54 54 55 56 57 59 60 60 60 60 60 59
36 35 34 33 32 32 34 35 37 39 40 42 44 47 48 49 49 49 49 50 51 51 51 52 51 52 52 53 53 53 52 51 50 49 48 47 45 44 43 43 42 41 41 41 40 40 41 41 41 41 41 42 42 43 43 44 45 45 45 46 47 47 48 48 49 49 49 50 51 51 52 53 53 53 54 54 55 56 58 60 60 60 61 61 60
38 38 38 37 34 34 36 38 39 41 43 45 48 50 50 49 49 50 50 50 51 51 51 51 50 50 51 51 52 52 51 50 49 48 47 46 44 42 42 41 41 40 40 39 39 39 40 40 40 41 41 42 42 43 44 44 45 46 46 47 47 48 48 49 49 49 50 50 51 51 52 52 52 53 53 54 54 55 56 58 59 60 61 62 61
40 40 40 39 37 37 39 40 41 43 45 48 50 51 51 51 52 52 52 52 52 52 51 51 50 50 49 49 49 49 49 49 47 46 46 45 43 41 41 40 40 39 39 39 39 39 39 40 40 41 42 43 43 44 44 45 46 46 47 47 48 48 49 49 50 50 50 50 51 51 52 52 52 52 53 53 54 55 56 57 58 60 61 62 62
40 41 41 40 38 39 40 42 44 45 47 50 50 51 51 52 54 54 54 53 53 52 52 52 52 50 49 48 47 47 47 47 46 45 44 43 42 40 40 40 39 39 39 39 39 39 39 40 41 41 42 43 44 44 45 45 46 46 47 47 48 48 49 49 49 50 50 50 51 51 51 52 52 52 52 53 53 54 55 56 57 59 61 62 62
41 41 41 41 40 40 41 43 45 47 48 50 50 50 50 52 53 54 53 53 53 53 53 53 53 52 50 48 47 45 45 44 44 43 42 42 41 39 39 38 38 38 38 38 39 39 40 40 41 42 42 43 44 44 45 45 46 46 46 47 47 48 48 48 49 49 50 50 50 50 51 51 51 52 52 52 53 53 54 55 55 56 59 61 63
42 42 42 43 43 43 43 44 46 47 48 49 50 49 49 51 52 52 52 53 53 52 52 52 51 51 50 48 46 45 44 43 42 42 41 40 39 38 38 37 37 38 38 39 39 40 40 41 41 42 42 43 43 44 44 45 45 45 46 46 46 47 47 48 48 48 49 49 50 50 50 50 51 51 52 52 52 52 53 54 55 55 56 59 61
42 43 42 43 45 45 46 46 47 48 47 47 48 47 48 49 51 52 52 52 52 52 51 50 50 49 48 47 45 44 42 41 41 40 39 39 39 38 38 38 38 38 39 40 40 40 41 41 41 42 42 42 42 43 43 44 44 45 45 45 46 46 47 47 47 48 48 49 49 49 50 50 50 51 51 52 52 52 52 53 54 54 55 57 58
44 44 44 44 45 46 47 47 49 49 48 48 48 48 48 49 50 52 52 52 52 52 51 50 49 48 47 46 44 42 41 40 39 38 38 38 38 39 39 39 40 40 40 41 41 41 41 41 41 41 41 41 42 42 42 43 43 43 44 44 45 45 46 46 47 47 48 48 49 49 49 49 50 50 51 51 52 52 52 53 53 54 54 56 56
47 47 47 48 47 48 49 50 52 53 52 51 51 50 50 49 50 52 52 52 52 52 52 50 49 48 46 44 42 40 39 38 38 38 38 38 39 39 40 40 40 41 41 41 41 41 41 41 41 41 41 41 41 41 42 42 42 42 43 43 44 45 45 46 46 46 47 47 48 48 49 49 49 50 50 51 51 52 52 52 53 53 54 54 55
50 51 51 51 50 49 50 52 54 55 56 55 54 53 52 51 50 52 53 52 52 52 52 51 49 47 45 43 41 39 39 38 38 38 39 39 39 39 40 40 40 41 41 41 41 41 41 41 41 41 41 41 41 41 42 42 42 42 42 43 44 44 45 45 45 46 46 46 47 48 48 48 48 49 50 50 51 51 52 52 52 52 53 53 54
53 53 52 51 50 48 47 49 52 56 58 58 58 56 55 53 51 52 53 52 52 52 52 51 49 47 45 43 41 40 39 39 39 39 39 39 39 40 40 40 40 40 40 41 41 41 41 41 41 41 41 41 41 41 41 42 42 42 42 43 43 44 45 45 45 45 46 46 47 47 47 47 48 49 49 50 50 50 50 51 51 51 52 52 53
54 52 51 49 48 46 45 47 51 55 58 59 60 60 59 56 53 53 53 52 52 52 52 50 48 46 44 42 42 41 41 41 40 40 40 40 40 40 40 41 40 40 40 40 40 40 40 40 40 40 41 41 41 41 41 41 41 42 42 43 43 44 44 45 45 46 46 46 47 47 47 47 48 49 49 49 49 49 49 50 50 50 51 51 52
51 49 48 46 46 46 46 47 50 53 56 58 61 62 62 59 55 54 55 53 52 52 51 50 47 45 44 42 42 42 42 42 42 41 41 41 41 41 41 41 41 41 41 40 40 40 40 40 40 40 40 40 40 41 41 40 41 41 42 43 43 43 44 44 45 45 46 46 47 47 47 47 48 49 49 49 48 48 48 49 50 49 49 50 50
47 44 44 43 44 44 46 47 49 51 54 56 59 62 63 61 57 56 56 54 52 51 50 49 47 45 43 43 43 43 43 43 42 42 41 41 42 42 41 41 41 41 41 40 40 40 40 40 40 40 40 40 40 40 40 40 40 41 42 42 42 43 43 44 44 45 45 46 46 47 46 47 48 48 48 48 47 47 48 48 48 48 48 48 49
48 46 45 44 45 46 47 48 49 51 53 55 57 59 62 61 58 56 56 55 52 50 49 48 46 44 43 43 43 43 43 42 42 42 42 42 42 42 41 41 41 41 40 40 40 40 39 40 40 39 39 39 39 39 39 39 40 41 41 42 42 42 43 43 44 44 45 45 45 46 46 46 46 47 47 47 47 47 47 47 47 46 46 46 47
51 50 49 49 49 49 49 50 51 52 53 54 55 57 60 61 58 55 55 54 51 50 48 47 45 44 43 43 43 43 43 42 42 41 41 42 42 42 41 41 41 40 40 40 39 39 39 39 39 39 39 39 39 39 39 39 40 41 41 41 41 42 43 43 44 44 44 45 45 45 45 45 45 45 46 45 45 45 46 46 45 44 44 44 45
52 52 53 52 51 50 50 51 52 53 53 53 53 54 58 61 58 54 54 53 50 49 48 46 45 44 43 43 43 43 43 42 41 41 41 41 41 41 41 41 40 40 40 40 39 39 39 39 39 38 38 39 39 38 38 39 40 40 40 41 41 41 42 43 44 44 44 44 44 44 44 44 44 44 44 43 43 43 43 44 43 42 42 43 43
56 56 57 55 52 51 51 52 53 53 54 53 53 54 57 59 56 54 54 52 50 49 47 45 45 44 43 43 43 43 43 42 41 41 41 41 41 41 41 40 40 40 40 39 39 39 39 39 38 38 37 38 37 37 37 38 40 40 41 41 41 42 43 43 44 44 44 43 43 42 42 42 42 42 42 41 41 40 40 41 41 41 41 41 41
58 58 58 55 54 54 54 54 54 54 54 55 55 56 57 57 55 54 55 53 51 49 46 45 44 43 43 43 43 43 43 42 42 41 41 41 41 41 40 40 40 40 39 39 39 38 38 38 38 37 37 37 37 36 37 38 38 38 39 41 43 43 44 45 45 45 44 44 43 42 41 41 40 39 39 39 38 39 39 39 39 39 38 37 37
59 58 57 56 56 57 56 56 55 55 56 57 58 58 57 57 55 55 55 53 50 48 45 44 43 43 43 43 42 43 42 42 42 41 41 41 41 40 40 40 40 40 39 39 38 38 38 38 38 37 37 37 36 35 36 37 37 37 37 39 41 43 44 45 46 45 45 44 44 43 42 41 39 38 37 37 37 37 37 37 37 37 35 33 33
59 59 59 58 59 58 58 57 57 57 58 60 60 58 56 55 54 55 55 52 49 46 44 43 42 42 42 42 42 42 42 42 42 41 41 41 40 40 40 40 40 40 39 39 38 38 38 38 37 37 37 37 36 35 36 36 36 36 36 38 40 42 43 44 44 44 44 44 43 43 41 40 39 38 37 37 37 37 37 36 35 34 33 32 31
62 63 63 63 64 62 59 58 58 59 59 60 61 59 57 56 56 56 54 50 47 44 42 42 42 42 41 41 41 42 42 42 42 41 41 40 40 40 40 40 40 40 40 39 38 38 38 38 38 38 38 37 36 35 35 36 36 36 37 38 40 41 42 42 42 42 42 42 41 41 41 40 39 38 37 36 36 37 37 37 35 33 33 33 33
66 67 68 69 69 67 63 61 60 60 60 60 60 58 57 58 58 57 53 48 45 43 41 41 41 41 41 40 40 41 41 42 41 41 40 40 39 40 40 40 40 40 40 39 39 39 39 39 39 38 38 38 36 36 36 36 36 37 37 38 39 40 41 41 41 40 40 40 40 40 40 40 39 38 36 35 35 35 36 35 34 33 33 34 36
66 68 69 69 67 65 64 62 60 60 60 60 58 56 56 59 60 57 51 46 43 41 40 40 40 40 40 40 40 41 41 41 41 40 40 39 39 39 39 39 40 39 39 39 39 39 39 39 39 39 39 38 36 36 36 36 36 37 37 38 39 40 40 40 40 39 39 38 38 38 38 38 38 38 36 34 33 32 33 34 35 36 36 37 39
67 68 66 64 62 62 62 61 60 59 58 56 55 55 57 60 59 55 48 43 41 40 39 39 40 39 39 39 39 40 41 41 41 40 39 39 39 39 39 39 39 39 39 38 38 39 39 39 40 39 40 39 37 35 35 35 36 36 37 38 39 39 40 40 40 38 37 37 36 36 36 36 37 38 37 34 31 30 33 35 37 38 38 40 41
68 65 63 61 61 62 61 60 60 58 54 53 54 56 59 58 56 51 45 40 39 38 38 39 39 38 38 38 39 40 40 41 40 40 39 39 38 38 38 38 39 38 38 38 38 38 39 39 40 39 40 39 37 35 34 35 35 35 36 37 39 40 40 40 39 38 37 36 35 35 34 35 36 37 36 33 30 30 33 36 38 38 39 42 43
67 64 62 62 62 61 59 58 57 54 52 53 56 57 56 54 50 46 42 39 38 37 38 38 38 37 37 37 38 39 40 40 40 39 39 38 38 38 38 38 38 38 38 37 38 38 39 39 39 39 39 39 37 35 34 34 34 34 35 36 38 39 40 40 39 38 37 37 36 35 34 34 35 34 32 31 30 30 32 35 37 37 40 43 42
67 66 64 62 62 61 58 56 54 52 54 57 57 55 52 49 44 41 39 37 37 37 37 36 36 36 36 36 37 38 39 39 39 38 38 38 37 37 37 37 37 37 37 37 37 38 39 39 39 39 39 39 38 36 34 33 34 34 34 35 36 38 39 38 38 38 38 38 37 36 35 33 33 33 32 31 30 30 32 34 37 39 42 42 40
67 66 64 62 61 58 55 53 53 53 56 59 58 54 48 43 39 37 36 36 36 36 36 35 35 35 35 36 36 37 38 38 38 38 37 37 36 36 36 36 36 36 36 36 37 38 39 39 39 39 39 38 37 36 34 33 33 33 33 34 35 36 37 36 37 39 40 39 37 37 35 33 33 33 32 31 30 29 30 34 38 41 41 40 38
68 66 64 62 59 55 53 52 53 54 57 57 55 50 43 37 35 34 34 34 35 35 35 34 34 34 34 35 35 36 37 37 37 37 36 36 35 35 35 35 35 35 35 36 36 37 38 39 38 38 38 38 37 35 33 32 32 32 32 32 33 34 34 34 37 40 39 38 37 36 35 33 33 33 32 31 30 30 31 34 38 39 39 38 38
68 66 64 60 57 55 53 52 52 52 54 53 49 43 37 34 33 33 33 33 34 34 34 33 33 33 33 34 35 35 36 36 36 35 35 35 34 34 34 34 34 34 35 35 36 37 38 38 38 38 38 38 36 34 32 31 31 32 32 32 32 32 32 33 37 39 37 36 36 35 33 32 32 32 31 32 33 33 34 35 35 36 39 39 39
65 64 62 59 57 56 54 53 51 50 48 45 41 37 34 32 32 32 32 33 33 33 33 32 32 32 33 33 34 34 34 35 34 34 34 33 33 33 33 33 33 34 34 35 35 37 38 38 38 38 38 38 36 34 31 29 30 31 32 32 31 30 31 33 35 35 34 34 34 32 31 31 31 32 34 36 36 36 35 34 32 32 35 38 38
62 61 60 58 57 56 55 53 51 47 43 38 35 33 32 31 30 31 31 32 32 32 32 31 31 32 32 33 33 33 33 33 33 32 33 32 32 32 32 32 33 33 34 35 35 36 37 38 38 38 38 37 36 34 31 28 29 30 32 32 31 30 30 31 31 31 31 31 31 30 30 29 30 32 35 37 37 37 36 34 31 29 30 33 35
61 60 58 57 56 55 53 51 47 42 38 34 32 31 31 29 29 30 31 31 30 30 30 30 31 31 32 32 33 32 32 32 31 31 31 31 31 31 31 31 32 32 34 35 35 36 37 38 38 38 38 37 36 34 31 28 28 29 31 32 32 30 29 28 28 28 29 29 29 29 27 27 28 30 32 34 35 35 35 33 30 27 27 28 31
61 59 58 56 55 53 50 47 42 38 35 33 31 30 29 28 28 29 30 30 29 29 30 30 30 30 31 31 31 31 30 30 30 30 30 30 30 30 30 31 31 32 33 34 35 35 36 37 38 38 38 37 35 33 31 29 29 29 30 31 31 30 28 27 26 27 27 28 27 25 24 24 26 26 28 30 31 32 32 31 29 27 25 26 28
60 58 57 55 52 50 46 42 38 35 33 32 31 29 28 28 28 28 29 29 29 29 29 29 29 30 30 30 30 29 29 29 29 29 29 29 29 29 30 30 31 32 34 34 35 35 35 36 37 38 38 38 36 33 31 30 29 29 30 31 31 31 30 29 27 28 29 28 25 23 23 23 24 25 26 27 28 28 29 29 28 26 25 25 27
59 57 54 51 48 44 41 38 35 34 32 31 29 28 28 28 28 28 28 29 29 29 29 29 29 29 29 28 29 28 29 29 28 28 28 28 29 29 30 30 30 31 33 35 35 34 35 36 37 37 37 38 36 33 31 31 30 30 31 33 33 33 32 31 30 30 31 30 27 25 24 24 24 25 25 26 26 26 26 27 27 27 25 26 27
56 54 50 47 43 40 37 35 34 33 32 30 28 27 27 28 28 28 28 29 29 29 29 28 28 28 28 28 28 28 28 28 28 28 28 28 28 28 29 30 30 31 31 33 34 35 34 35 37 37 37 37 36 34 32 32 32 32 32 34 34 33 33 32 32 32 32 30 29 27 25 24 24 25 25 24 24 24 24 25 26 26 26 26 26
54 51 48 44 40 37 36 34 33 32 31 29 28 27 27 28 28 28 29 29 29 29 28 28 27 27 27 28 28 28 28 28 27 28 28 29 29 28 28 29 30 31 31 32 33 34 34 35 37 38 38 38 38 36 34 33 33 32 33 34 34 33 32 32 32 33 32 30 29 28 26 25 24 24 23 23 23 23 23 23 24 25 26 26 25
Wind_Direction
326 319 311 303 296 291 287 284 282 280 278 276 274 272 271 269 269 268 267 267 267 267 267 268 268 268 269 270 271 272 274 276 278 279 280 281 282 283 283 283 282 281 280 279 278 277 276 276 276 276 275 275 276 276 276 277 277 277 277 278 279 280 281 281 282 282 282 281 280 279 279 278 277 277 278 278 276 274 272 270 269 269 269 269 268
331 324 317 309 301 295 291 287 285 283 281 279 277 275 273 271 270 269 268 268 268 268 269 269 270 271 272 273 274 275 277 279 280 282 283 283 284 285 285 285 284 283 282 281 280 279 278 277 277 276 276 276 276 277 277 277 278 278 278 278 279 280 280 280 280 280 281 281 280 279 278 277 276 277 278 278 277 275 274 272 270 269 268 268 267
333 327 320 313 306 299 294 290 286 284 282 280 278 276 275 274 273 272 272 271 271 272 273 274 275 276 277 278 279 280 282 284 285 287 287 288 288 288 288 288 287 287 286 285 283 282 280 279 278 277 277 277 277 277 277 277 277 277 278 278 278 278 278 279 279 280 280 280 280 280 279 278 276 276 277 277 277 276 275 273 271 270 268 267 267
333 328 322 317 311 305 299 294 290 286 284 282 280 279 277 276 275 275 275 275 276 277 278 279 280 281 282 283 284 284 286 288 290 291 292 293 293 293 293 292 291 291 290 289 288 286 285 283 282 280 279 278 278 277 277 277 277 277 278 278 278 277 277 277 278 279 279 279 280 279 279 279 277 276 276 275 276 275 274 273 272 271 269 268 266
332 328 324 319 314 308 303 297 293 289 286 284 282 281 279 278 277 277 277 278 279 280 282 283 285 285 286 288 288 289 291 292 293 294 295 296 296 296 296 295 294 294 293 292 291 290 288 286 285 283 282 281 280 279 278 278 277 277 277 277 277 277 276 276 276 277 277 278 279 279 279 278 277 277 275 273 273 274 274 273 273 272 270 268 266
331 328 323 319 314 308 304 298 294 290 287 284 282 280 280 278 278 278 279 280 282 284 286 289 290 291 292 293 294 294 294 294 295 295 295 296 296 296 296 296 295 294 293 293 292 291 290 288 286 285 283 282 280 279 279 278 277 276 276 276 275 275 275 275 275 275 275 276 276 277 277 278 277 276 275 273 271 270 271 272 272 271 271 269 268
331 327 324 319 313 308 303 299 294 291 288 286 283 281 280 280 281 282 285 287 289 289 290 293 294 294 294 295 295 295 295 295 295 295 295 295 295 295 295 294 294 293 292 291 290 290 289 287 285 284 283 281 280 279 278 278 277 276 275 275 274 274 274 274 274 274 274 274 274 275 275 276 276 276 275 274 272 269 268 268 269 269 269 268 267
331 329 326 321 315 309 304 300 296 292 289 287 285 283 282 283 286 289 290 291 293 293 293 295 295 294 294 294 295 295 294 294 294 294 294 294 294 293 293 292 291 291 290 289 288 287 286 285 283 282 281 280 279 278 277 276 276 275 275 274 274 274 274 273 273 273 273 273 273 273 273 273 274 274 274 274 273 271 267 266 266 266 265 265 264
335 333 330 324 317 310 304 299 295 292 289 287 285 284 285 286 290 292 291 292 293 293 293 294 294 293 293 293 294 294 293 293 293 293 292 292 291 291 290 289 288 287 287 286 285 284 283 282 280 279 278 277 276 276 275 275 274 274 274 274 274 274 274 274 274 273 273 273 273 272 272 272 272 272 273 273 273 272 270 267 266 265 264 263 262
333 332 329 323 316 309 304 298 294 291 288 286 285 286 287 288 291 292 291 292 292 292 292 293 293 293 293 294 294 294 294 294 294 293 293 292 291 290 289 288 287 285 284 283 282 281 280 279 277 277 276 275 274 274 274 273 273 273 273 273 274 274 274 275 275 274 274 274 274 274 273 273 272 272 272 272 272 272 271 269 268 266 264 263 262
328 326 323 319 314 309 304 298 294 292 290 289 289 289 290 290 292 293 292 293 294 294 295 296 297 297 296 296 297 297 296 296 296 295 295 294 293 291 290 288 286 285 284 282 281 280 279 278 277 276 275 274 274 274 274 274 274 274 274 274 274 274 274 275 275 275 275 275 274 275 274 274 273 273 272 272 271 271 271 269 268 267 265 263 262
325 323 320 317 313 307 302 299 296 294 293 293 292 293 294 295 297 297 298 299 299 300 300 300 300 300 299 299 299 299 298 298 297 296 296 295 294 292 290 289 287 285 284 282 281 280 279 278 277 277 277 276 276 276 276 275 275 275 275 276 276 275 275 275 275 275 275 275 274 274 274 274 273 273 272 272 272 272 271 270 269 268 266 262 262
323 322 319 316 312 306 301 298 296 294 293 292 293 297 299 301 302 302 302 303 302 302 302 301 301 301 300 300 300 300 299 299 299 298 297 296 294 293 290 289 287 285 284 283 282 281 280 280 279 279 279 278 278 278 277 277 277 276 276 276 276 276 276 275 275 274 274 274 273 273 273 273 273 272 272 272 272 272 272 271 271 270 268 264 262
320 319 317 315 311 305 300 298 296 295 293 293 296 301 305 306 306 306 305 305 304 304 303 303 302 302 301 301 300 299 299 299 299 298 297 296 294 293 291 289 288 286 285 284 283 282 282 281 281 281 281 280 280 280 279 279 278 278 277 277 276 276 276 275 274 274 273 273 272 272 271 271 271 271 271 271 271 271 271 271 271 271 270 268 265
318 316 314 312 309 303 299 298 297 296 296 297 301 305 308 308 308 307 306 306 306 305 305 305 305 304 303 301 300 299 299 299 298 297 296 295 294 292 291 289 288 287 286 285 285 285 284 284 283 283 283 282 282 282 281 281 280 279 279 278 277 277 276 275 274 274 273 272 272 271 271 270 270 269 269 269 270 270 270 271 271 271 270 269 268
316 314 312 310 307 302 300 299 299 299 299 300 304 306 307 307 307 306 306 306 306 307 307 307 306 306 304 303 302 300 298 297 297 296 295 294 293 292 290 289 289 288 288 287 287 286 286 285 285 285 284 284 283 283 282 281 281 280 279 279 278 277 276 276 275 274 274 273 272 272 271 270 270 269 269 268 268 268 269 269 270 271 271 270 268
316 314 311 309 307 303 301 300 299 300 300 300 303 305 305 305 304 305 305 306 306 307 307 307 306 306 305 305 303 300 298 296 295 295 294 293 292 291 290 289 289 288 288 288 288 287 287 286 286 285 285 284 284 283 282 282 281 280 280 279 278 277 277 276 276 275 275 274 273 273 272 271 271 270 270 269 268 267 267 268 268 269 270 270 269
315 314 311 309 308 306 304 302 300 301 300 300 302 303 304 304 304 305 305 306 306 306 306 306 305 305 305 304 302 300 298 296 295 294 293 293 292 292 291 290 290 289 289 289 288 288 288 287 287 286 285 285 284 284 283 282 282 281 280 280 279 278 278 277 277 276 275 275 274 274 273 273 272 272 271 271 270 269 268 268 268 268 268 269 269
315 314 312 310 309 308 307 305 302 301 302 302 303 304 305 305 305 306 306 306 306 306 306 305 305 305 304 303 301 300 298 296 295 293 292 292 292 292 292 292 292 291 291 290 290 289 288 288 287 287 286 286 285 284 284 283 283 283 282 282 281 280 280 279 278 278 277 277 276 275 275 274 274 273 272 272 271 271 270 269 268 268 268 268 268
316 316 314 313 311 309 307 305 303 304 306 306 307 308 308 308 308 307 308 308 307 307 307 306 306 305 303 302 300 299 297 295 294 293 292 292 292 292 292 292 292 292 292 291 291 290 290 289 289 288 288 287 287 286 286 285 285 284 284 283 283 282 282 281 280 280 279 279 278 277 276 276 275 274 273 273 272 271 271 270 269 268 268 268 267
319 319 317 316 314 311 309 308 308 309 310 310 310 310 309 310 310 309 309 309 308 308 307 307 306 304 302 301 299 298 296 294 293 292 292 292 292 292 292 292 292 292 292 292 291 291 291 291 291 290 290 290 289 289 288 288 287 287 286 285 285 284 283 282 282 281 281 280 279 279 278 277 276 275 275 274 273 272 271 271 270 269 268 268 267
322 321 320 318 316 314 311 310 309 309 309 309 309 309 309 311 311 309 309 309 308 308 307 306 305 302 301 300 298 296 294 292 292 292 292 292 291 291 291 292 292 292 292 292 292 292 292 292 292 292 292 291 291 291 290 290 290 289 288 287 286 286 285 284 283 283 282 281 280 280 279 278 277 277 276 275 274 273 272 271 271 270 269 269 268
322 320 319 317 314 312 308 305 305 306 307 308 309 309 309 310 310 309 309 309 308 307 305 304 303 301 300 298 296 295 293 292 292 292 291 291 291 291 291 292 292 292 292 293 293 293 293 293 293 293 293 293 292 292 292 292 291 291 290 289 288 288 287 286 286 285 284 283 282 281 280 279 279 278 277 276 275 275 274 273 272 271 270 269 269
317 314 314 311 308 306 303 301 302 303 305 306 308 309 309 310 310 309 309 309 308 306 304 303 302 300 298 296 295 294 293 293 293 292 292 291 291 292 292 293 293 293 293 294 294 294 294 294 294 294 294 294 294 294 293 293 293 292 291 290 289 289 288 288 287 286 285 284 283 282 282 281 280 279 278 278 277 276 276 275 274 273 272 271 270
309 307 307 306 303 302 300 297 297 298 300 302 304 305 307 308 310 309 308 308 307 305 303 302 300 298 296 295 294 293 293 293 293 293 292 292 292 293 293 294 294 294 294 294 294 295 294 295 295 295 295 295 295 295 295 294 294 293 292 291 290 289 289 288 287 287 286 285 284 283 283 282 281 280 279 279 278 278 277 276 275 275 274 273 272
308 306 304 301 299 296 293 292 291 291 294 297 299 301 304 307 309 308 307 307 306 304 302 300 298 296 295 294 293 292 292 292 292 292 292 292 293 293 293 294 294 294 294 294 294 294 295 295 295 295 295 295 295 295 295 295 294 293 292 291 291 290 289 289 288 287 286 285 284 283 282 282 281 281 280 280 279 278 277 277 276 275 275 274 273
312 310 307 303 300 297 294 293 291 289 291 294 296 298 301 304 307 307 305 305 304 302 300 298 296 295 294 293 292 292 292 292 292 291 291 292 292 292 293 293 293 293 293 293 294 294 295 295 295 295 296 295 296 296 296 295 294 293 293 292 291 291 290 289 288 287 286 285 284 283 282 282 281 280 280 279 278 278 277 276 276 275 275 274 274
310 308 307 304 300 298 295 293 291 290 292 294 295 297 298 301 305 305 303 302 302 301 299 296 294 293 292 292 291 291 291 291 291 291 291 291 291 291 292 292 292 292 292 293 293 294 294 295 295 296 296 296 297 297 298 297 296 295 295 294 294 293 291 290 289 288 287 286 285 284 283 281 281 280 279 279 278 277 277 276 275 275 275 274 274
307 305 306 304 300 298 295 293 292 292 293 295 296 295 296 300 303 303 302 302 301 299 297 294 292 291 291 291 291 291 291 291 290 290 290 291 291 291 291 291 291 291 292 292 293 293 294 294 295 296 297 298 299 299 300 298 297 297 296 295 295 294 292 291 290 289 287 286 285 284 284 283 281 280 280 279 278 277 277 277 276 276 274 274 274
308 307 307 306 302 301 299 297 297 296 296 297 298 297 297 300 304 304 303 303 300 298 295 293 291 291 291 291 291 291 291 291 291 291 291 290 291 291 291 291 291 291 291 292 292 293 293 294 296 297 297 299 300 300 300 299 299 299 298 297 296 294 293 291 290 288 286 285 284 283 282 282 281 281 280 279 279 278 276 276 275 274 274 274 274
309 308 309 308 306 305 304 302 300 299 299 300 301 301 302 304 306 305 303 302 299 296 294 291 290 290 290 291 291 291 291 291 291 291 291 291 291 291 291 290 290 290 291 291 292 293 294 295 296 297 298 300 301 301 301 300 300 301 300 299 297 296 295 293 291 291 289 288 286 284 283 281 280 280 279 277 276 273 271 270 271 271 272 274 276
310 310 311 311 309 308 307 305 302 300 300 302 303 305 306 307 306 304 301 299 297 294 292 290 290 290 290 290 291 291 291 291 292 291 291 291 291 291 291 291 291 291 291 292 292 293 294 295 297 298 299 301 301 301 301 299 300 300 299 298 297 296 295 295 294 294 293 292 290 288 287 285 283 282 280 278 275 272 269 267 266 267 270 272 276
311 312 313 313 312 311 308 305 304 302 302 304 305 307 309 308 305 301 299 297 295 293 290 289 289 290 290 291 291 292 292 292 292 292 291 292 291 291 291 291 291 292 292 293 293 294 295 296 297 299 300 301 302 302 300 300 299 300 299 297 296 296 295 295 295 294 293 292 291 290 289 287 285 284 282 281 280 278 275 272 270 271 272 272 271
313 315 315 315 314 312 308 305 304 304 304 304 306 308 309 307 303 300 298 296 294 292 290 290 290 290 291 292 293 293 293 293 293 292 292 292 291 291 291 291 292 292 292 293 294 294 296 297 298 300 301 302 303 302 301 300 300 299 298 297 296 296 295 295 294 293 292 291 290 289 288 287 286 284 282 281 280 279 277 276 276 276 276 275 274
316 317 316 314 311 310 308 307 307 306 305 304 306 308 307 305 302 300 298 296 293 291 290 290 291 291 292 293 294 294 294 293 293 293 292 292 292 291 291 291 291 292 292 293 294 295 296 297 299 300 301 302 303 303 302 301 300 299 298 297 297 297 296 295 293 292 290 289 288 287 286 286 285 282 282 281 279 278 278 277 276 274 274 274 275
314 311 310 309 309 308 309 309 309 307 305 305 306 306 303 302 301 299 297 295 291 290 291 291 291 292 293 295 295 294 294 294 294 294 294 293 292 292 292 291 291 292 292 293 294 295 296 297 299 300 300 302 303 303 302 300 299 299 298 298 297 297 296 295 293 291 289 288 287 285 284 284 283 281 280 278 277 277 277 275 272 271 272 273 275
308 308 309 310 310 310 309 310 309 307 306 306 305 302 300 299 299 298 296 293 291 291 292 291 292 294 295 296 295 295 295 295 295 295 295 294 293 292 292 292 292 292 292 293 294 295 296 297 298 300 300 301 302 303 301 299 298 298 298 297 297 296 295 294 292 291 289 287 285 283 283 282 281 279 278 278 277 276 273 271 270 270 272 273 274
310 312 314 313 312 311 311 310 309 308 307 304 301 299 299 299 299 298 295 293 292 292 292 292 294 295 296 297 296 295 295 295 295 295 295 294 293 293 293 292 292 292 293 294 295 295 296 297 298 299 300 300 302 302 300 298 298 298 298 298 297 297 295 295 294 293 291 288 285 283 283 282 281 280 281 281 279 275 271 269 269 270 271 272 273
315 316 316 314 313 312 311 309 309 308 304 301 300 301 301 301 299 296 294 294 293 292 292 293 295 297 297 298 297 296 296 296 296 296 295 294 294 293 293 293 293 293 294 295 295 296 297 298 298 299 300 301 302 303 301 299 298 298 298 298 297 297 296 296 297 296 293 289 286 285 284 284 284 285 284 282 279 275 272 270 269 269 270 271 274
317 317 316 314 313 313 311 309 307 304 301 301 303 305 304 302 297 293 293 294 293 292 293 295 297 298 298 298 298 297 297 296 297 296 295 295 295 294 294 294 294 294 295 296 296 297 297 298 299 300 301 302 303 303 302 300 298 299 299 298 297 296 296 298 298 295 291 289 289 290 290 290 290 288 286 283 280 277 275 272 269 269 269 272 276
317 316 315 314 313 313 310 307 304 302 301 303 306 307 305 301 296 294 295 294 292 293 296 297 298 299 299 299 298 298 297 297 297 296 296 296 295 295 294 294 294 295 296 296 297 298 298 299 300 301 301 302 303 303 302 300 298 298 298 296 296 296 298 299 296 292 292 293 294 295 295 294 293 290 288 287 283 281 279 275 269 266 268 273 276
317 316 315 314 314 313 309 306 304 302 301 304 306 307 304 300 296 296 296 294 293 295 297 298 300 301 301 300 299 298 298 297 297 297 296 296 296 295 295 295 296 296 297 297 298 298 299 299 301 302 302 303 303 303 302 299 297 297 297 296 296 297 298 296 292 292 295 297 296 296 296 296 294 292 292 288 283 280 276 271 267 264 265 267 269
316 315 315 315 314 312 310 308 306 303 303 305 307 306 303 299 299 298 296 294 295 297 298 301 303 303 302 302 300 299 299 298 298 298 298 297 297 296 296 297 298 298 298 299 299 299 299 300 302 302 302 302 302 302 301 299 298 297 297 297 296 295 294 291 291 295 297 296 294 294 295 295 294 292 289 283 281 280 276 272 269 265 262 260 262
315 315 315 315 314 314 313 311 310 308 308 308 307 305 302 301 300 298 296 296 298 299 302 304 305 304 304 302 301 300 299 299 299 299 298 298 298 298 299 299 299 300 300 300 300 300 301 302 303 303 303 302 303 303 302 301 299 298 298 298 296 294 292 292 294 297 296 293 292 292 291 291 290 286 282 281 282 284 283 281 277 270 263 260 262
318 318 318 318 317 317 316 315 313 312 311 310 307 305 303 302 300 298 298 298 300 303 306 307 307 306 305 303 302 301 300 300 300 300 299 299 299 300 300 300 301 301 301 301 301 302 302 303 304 304 303 303 304 304 304 303 301 299 298 297 296 294 293 294 296 297 294 291 289 287 287 287 284 281 280 282 284 286 286 285 282 276 267 262 263
322 322 322 322 321 320 319 317 316 315 314 312 308 305 304 303 302 300 300 302 305 307 309 309 308 307 305 304 303 303 302 302 302 301 301 302 302 302 302 302 302 303 302 303 303 304 304 305 305 304 304 304 305 305 306 305 302 299 297 296 295 296 296 295 296 297 294 289 285 283 284 283 279 278 279 281 282 283 284 284 284 278 270 265 267
325 326 326 325 325 324 322 320 319 318 316 312 309 308 308 306 305 304 304 307 310 311 311 310 309 308 307 306 305 304 304 303 303 303 303 303 303 303 303 304 304 304 304 304 305 305 305 305 304 305 305 305 306 307 308 306 302 299 297 296 297 299 301 300 299 298 296 291 286 285 284 283 281 281 281 281 281 280 281 282 281 276 270 267 270
329 329 329 328 328 327 326 324 322 320 317 314 314 314 313 310 308 309 311 313 314 314 313 313 312 310 309 308 307 306 306 305 305 305 305 305 305 305 305 306 307 306 306 307 307 307 307 306 306 306 307 307 308 309 308 305 303 302 301 300 302 305 307 307 307 305 301 300 299 295 291 289 289 289 287 285 283 280 278 278 277 273 268 267 270
331 331 331 331 331 330 329 327 324 321 319 319 320 319 317 314 314 316 317 318 317 316 316 315 314 313 312 310 309 308 308 307 308 307 307 307 307 307 308 309 308 308 308 308 308 308 308 306 306 306 307 307 308 309 308 307 308 309 308 307 308 310 311 313 312 308 305 307 308 303 297 296 295 294 291 287 283 279 275 273 272 270 266 264 268
333 334 335 335 334 334 332 329 325 324 324 325 325 322 320 320 321 322 322 321 320 320 319 318 317 315 313 312 311 310 310 310 310 309 308 308 308 309 309 310 309 309 309 309 309 308 308 308 307 307 308 309 310 311 311 311 311 312 310 308 308 309 311 312 310 306 305 309 310 306 301 300 298 295 293 290 285 280 274 269 265 263 262 261 265
336 337 337 337 336 335 333 330 329 330 331 332 330 327 325 326 326 326 325 325 323 322 321 320 319 316 314 313 313 312 312 312 311 310 310 309 310 310 311 311 311 311 311 311 310 310 310 310 309 310 311 311 312 312 312 311 310 309 307 305 305 307 310 310 307 304 306 308 308 305 303 301 298 297 295 293 288 282 276 269 262 257 256 257 261